Location: El Mouella
(16.4949°N, 9.1594°W)
Time: 01:28:14
(UTC+00:00)

H-2A R/B - Pass Details

Date: 02 June 2020
Orbit: 734 x 836 km, 98.2° (Epoch: 13 July)

Event Time Altitude Azimuth Distance (km) Brightness Sun altitude
Exits shadow 20:10:49 14° 158° (SSE) 1,968 3.7 -14.7°
Maximum altitude 20:15:00 68° 77° (ENE) 813 1.9 -15.5°
Drops below altitude 10° 20:20:02 10° 355° (N) 2,311 5.0 -16.6°
Sets 20:22:23 0° 353° (N) 3,254 5.8 -17.1°
